Location: Canyon City
(32.5951°N, 116.5278°W)
Time: 22:56:22
(UTC+00:00)

OAO 3 Rocket - Pass Details

Date: 13 December 2024
Orbit: 618 x 666 km, 35.0° (Epoch: 19 January)

Event Time Altitude Azimuth Distance (km) Brightness Sun altitude
Exits shadow 12:32:20 58° 38° (NE) 746 3.5 -26.1°
Drops below altitude 10° 12:36:23 10° 81° (E) 2,010 6.6 -25.2°
Sets 12:38:44 0° 84° (E) 2,909 7.7 -24.7°
